This is the latest recevied weather packets stored in our database for station/object KI2K. If no packets are shown the sender has not sent any weather packets the latest 10 day(s).
| Time | Temp. | Humidity | Pressure | Rain* | Wind** | Luminosity | Snow |
|---|---|---|---|---|---|---|---|
| 1777679918 | 10° C | 69% | 1015.3 hPa | 0 mm | - | 20 W/m² | - |
| 1777679614 | 10° C | 67% | 1015.2 hPa | 0 mm | - | 24 W/m² | - |
| 1777679309 | 10.56° C | 66% | 1015.2 hPa | 0 mm | - | 28 W/m² | - |
| 1777679007 | 10.56° C | 66% | 1015.3 hPa | 0 mm | - | 33 W/m² | - |
| 1777678705 | 10.56° C | 66% | 1015.3 hPa | 0 mm | - | 36 W/m² | - |
| 1777678402 | 10.56° C | 65% | 1015.3 hPa | 0 mm | - | 38 W/m² | - |
| 1777678097 | 10.56° C | 67% | 1015.4 hPa | 0 mm | - | 42 W/m² | - |
| 1777677795 | 10.56° C | 66% | 1015.5 hPa | 0 mm | - | 52 W/m² | - |
| 1777677493 | 10.56° C | 67% | 1015.6 hPa | 0 mm | - | 65 W/m² | - |
| 1777677190 | 10.56° C | 66% | 1015.5 hPa | 0 mm | - | 46 W/m² | - |
| 1777676888 | 11.67° C | 65% | 1015.4 hPa | 0 mm | - | 49 W/m² | - |
| 1777676587 | 11.67° C | 64% | 1015.6 hPa | 0 mm | - | 97 W/m² | - |
| 1777676284 | 11.67° C | 64% | 1015.5 hPa | 0 mm | - | 134 W/m² | - |
| 1777675982 | 11.67° C | 65% | 1015.5 hPa | 0 mm | - | 148 W/m² | - |
| 1777675677 | 12.22° C | 64% | 1015.6 hPa | 0 mm | - | 161 W/m² | - |
| 1777675375 | 12.22° C | 65% | 1015.5 hPa | 0 mm | - | 173 W/m² | - |
| 1777675071 | 11.67° C | 68% | 1015.5 hPa | 0 mm | - | 186 W/m² | - |
| 1777674768 | 11.67° C | 65% | 1015.9 hPa | 0 mm | - | 196 W/m² | - |
| 1777674464 | 11.67° C | 68% | 1016 hPa | 0 mm | - | 179 W/m² | - |
| 1777674162 | 11.11° C | 68% | 1015.9 hPa | 0 mm | - | 219 W/m² | - |
| 1777673858 | 10.56° C | 69% | 1015.8 hPa | 0 mm | - | 122 W/m² | - |
| 1777673555 | 10.56° C | 68% | 1015.9 hPa | 0 mm | - | 88 W/m² | - |
| 1777673253 | 11.11° C | 66% | 1015.7 hPa | 0 mm | - | 107 W/m² | - |
| 1777672950 | 11.11° C | 65% | 1015.7 hPa | 0 mm | - | 269 W/m² | - |
| 1777672647 | 11.11° C | 62% | 1015.7 hPa | 0 mm | - | 260 W/m² | - |
* Rain latest hour (hover to see other rain measurements)
** Current wind speed in m/s (hover to see current wind gust speed)